Curacao, Netherlands

3:33 AM AST on March 27, 2017 (GMT -0400)
Willemstad-Hato International

Weather History for TNCC - November, 2013

Change the Weather History Date:

Tuesday, November 19, 2013

  Actual Average Record
Temperature  
Mean Temperature 80 °F -  
Max Temperature 86 °F 85 °F 91 °F (2006)
Min Temperature 75 °F 78 °F 71 °F (2010)
Cooling Degree Days 16    
Growing Degree Days 30 (Base 50)    
Moisture  
Dew Point 72 °F    
Average Humidity 70    
Maximum Humidity 83    
Minimum Humidity 55    
Precipitation  
Precipitation 0.00 in - - ()
Sea Level Pressure  
Sea Level Pressure 29.80 in    
Wind  
Wind Speed 5 mph ()    
Max Wind Speed 9 mph    
Max Gust Speed -    
Visibility 6.2 miles    
Events      
Averages and records for this station are not official NWS values.
T = Trace of Precipitation, MM = Missing Value Source: Averaged Metar Reports

Daily Weather History Graph

Daily Weather History Graph

Search for Another Location

Airport or City:

Trip Planner

Search our weather history database for the weather conditions in past years. The results will help you decide how hot, cold, wet, or windy it might be!

Date:

Astronomy

Nov. 19, 2013 Rise Set
Actual Time 6:35 AM AST 6:07 PM AST
Civil Twilight 6:12 AM AST 6:29 PM AST
Nautical Twilight 5:46 AM AST 6:55 PM AST
Astronomical Twilight 5:21 AM AST 7:21 PM AST
Moon 7:57 PM AST (11/19) 8:08 AM AST (11/19)
Length of Visible Light 12h 16m
Length of Day
11h 32m
Waning Gibbous, 96% of the Moon is Illuminated
Nov 19
Waning Gibbous
Nov 25
Last Quarter
Dec 2
New
Dec 9
First Quarter
Dec 17
Full

Hourly Weather History & Observations

Time (AST) Temp. Heat Index Dew Point Humidity Pressure Visibility Wind Dir Wind Speed Gust Speed Precip Events Conditions
12:00 AM 80.6 °F 83.9 °F 69.8 °F 70% 29.80 in 6.2 mi ENE 6.9 mph - N/A   Partly Cloudy
1:00 AM 80.6 °F 84.6 °F 71.6 °F 74% 29.80 in 6.2 mi East 5.8 mph - N/A   Partly Cloudy
2:00 AM 80 °F - 71 °F 67% 29.78 in 31 mi East 4.6 mph - -   Scattered Clouds
2:00 AM 80.6 °F 84.6 °F 71.6 °F 74% 29.77 in 6.2 mi East 5.8 mph - N/A   Partly Cloudy
3:00 AM 78.8 °F - 69.8 °F 74% 29.77 in 6.2 mi SE 2.3 mph - N/A   Partly Cloudy
4:00 AM 78.8 °F - 71.6 °F 78% 29.74 in 6.2 mi Variable 2.3 mph - N/A   Partly Cloudy
5:00 AM 79 °F - 71 °F 71% 29.77 in 31 mi ESE 2.3 mph - -   Scattered Clouds
5:00 AM 78.8 °F - 71.6 °F 78% 29.77 in 6.2 mi Variable 3.5 mph - N/A   Partly Cloudy
6:00 AM 77.0 °F - 69.8 °F 78% 29.80 in 6.2 mi Variable 2.3 mph - N/A   Partly Cloudy
7:00 AM 77.0 °F - 71.6 °F 83% 29.80 in 6.2 mi SE 3.5 mph - N/A   Partly Cloudy
8:00 AM 83 °F - 72 °F 61% 29.83 in 37 mi SSE 3.5 mph - -   Scattered Clouds
8:00 AM 82.4 °F 87.2 °F 71.6 °F 70% 29.83 in 6.2 mi SSE 4.6 mph - N/A   Partly Cloudy
9:00 AM 84.2 °F 89.6 °F 71.6 °F 66% 29.86 in 6.2 mi Variable 3.5 mph - N/A   Scattered Clouds
10:00 AM 86.0 °F 91.8 °F 71.6 °F 62% 29.86 in 6.2 mi East 4.6 mph - N/A   Scattered Clouds
11:00 AM 87 °F - 73 °F 55% 29.86 in 37 mi ENE 8.1 mph - -   Partly Cloudy
11:00 AM 86.0 °F 93.4 °F 73.4 °F 66% 29.86 in 6.2 mi ENE 4.6 mph - N/A   Scattered Clouds
12:00 PM 86.0 °F 93.4 °F 73.4 °F 66% 29.83 in 6.2 mi East 4.6 mph - N/A   Scattered Clouds
1:00 PM 84.2 °F 89.6 °F 71.6 °F 66% 29.80 in 6.2 mi East 4.6 mph - N/A   Scattered Clouds
2:00 PM 83 °F - 71 °F 60% 29.79 in 37 mi ENE 8.1 mph - -   Partly Cloudy
2:00 PM 84.2 °F 89.6 °F 71.6 °F 66% 29.80 in 6.2 mi ENE 4.6 mph - N/A   Scattered Clouds
3:00 PM 86.0 °F 91.8 °F 71.6 °F 62% 29.77 in 6.2 mi ENE 4.6 mph - N/A   Partly Cloudy
4:00 PM 84.2 °F 89.6 °F 71.6 °F 66% 29.77 in 6.2 mi NE 5.8 mph - N/A   Partly Cloudy
5:00 PM 84 °F - 72 °F 61% 29.77 in 37 mi ENE 8.1 mph - -   Clear
5:00 PM 84.2 °F 89.6 °F 71.6 °F 66% 29.77 in - ENE 5.8 mph - N/A   Clear
6:00 PM 82.4 °F 87.2 °F 71.6 °F 70% 29.77 in - ENE 5.8 mph - N/A   Clear
7:00 PM 82.4 °F 87.2 °F 71.6 °F 70% 29.77 in - NE 6.9 mph - N/A   Clear
8:00 PM 82 °F - 73 °F 67% 29.81 in 37 mi NE 8.1 mph - -   Clear
8:00 PM 82.4 °F 88.2 °F 73.4 °F 74% 29.80 in - NE 8.1 mph - N/A   Clear
9:00 PM 82.4 °F 88.2 °F 73.4 °F 74% 29.83 in - NE 9.2 mph - N/A   Clear
10:00 PM 80.6 °F 85.4 °F 73.4 °F 79% 29.83 in 6.2 mi ENE 8.1 mph - N/A   Partly Cloudy
11:00 PM 81 °F - 73 °F 72% 29.86 in 37 mi East 5.8 mph - -   Partly Cloudy
11:00 PM 80.6 °F 85.4 °F 73.4 °F 79% 29.86 in 6.2 mi East 6.9 mph - N/A   Scattered Clouds